Simultaneous Nadir Overpasses (SNOs) Predictions

Prediction of SNOs between GOES-15 and NOAA-20 Satellite Orbit:

Table of predicted SNOs for the next 14.0 days since TLE Epoch: 1/29/2022
Index Date Time (GOES-15) GOES-15 Lat,Lon NOAA-20 Lat,Lon Distance(km) Time Diff (sec)
1 01/29/2022 09:42:16 -0.02,-128.31 -0.97,-124.17 472.25 80
2 01/30/2022 22:01:35 0.02,-128.31 -0.23,-129.48 132.76 80
3 01/31/2022 21:45:31 0.02,-128.30 0.77,-124.95 382.02 80
4 02/02/2022 10:07:21 -0.02,-128.26 0.43,-130.22 223.05 80
5 02/03/2022 09:45:57 -0.02,-128.25 -0.57,-125.69 291.74 80
6 02/04/2022 22:07:55 0.02,-128.25 -0.63,-131.00 313.54 80
7 02/05/2022 21:51:53 0.02,-128.24 0.44,-126.48 201.18 80
8 02/07/2022 10:13:42 -0.02,-128.20 0.76,-131.75 403.66 80
9 02/08/2022 09:52:19 -0.01,-128.19 -0.24,-127.22 110.70 80
10 02/09/2022 22:14:17 -0.01,-128.18 -0.95,-132.53 495.14 80
11 02/10/2022 21:58:14 -0.01,-128.16 0.05,-128.00 19.25 80
